Overview Statistics Trail Chart Weather Telemetry Raw packets
 

This is the latest recevied weather packets stored in our database for station/object N0QV. If no packets are shown the sender has not sent any weather packets the latest 10 day(s).

<< 99 100 101 102 103 104 105 >>
Time Temp. Humidity Pressure Rain* Wind** Luminosity Snow
1787928171 22.22° C 68% 1021.3 hPa 0 mm - 363 W/m² -
1787927870 22.22° C 70% 1021.3 hPa 0 mm - 301 W/m² -
1787927564 22.22° C 71% 1021.1 hPa 0 mm - 314 W/m² -
1787927260 22.22° C 73% 1021.2 hPa 0 mm - 286 W/m² -
1787926956 22.22° C 73% 1021.3 hPa 0 mm - 350 W/m² -
1787926656 21.11° C 76% 1021.3 hPa 0 mm - 188 W/m² -
1787926354 20.56° C 76% 1021.1 hPa 0 mm - 66 W/m² -
1787926049 20.56° C 76% 1021.2 hPa 0 mm - 183 W/m² -
1787925749 20° C 78% 1021.3 hPa 0 mm - 168 W/m² -
1787925448 20° C 78% 1021.3 hPa 0 mm - 144 W/m² -
1787925143 19.44° C 78% 1021.4 hPa 0 mm - 140 W/m² -
1787924841 19.44° C 77% 1021.5 hPa 0 mm - 134 W/m² -
1787924536 18.89° C 79% 1021.4 hPa 0 mm - 126 W/m² -
1787924232 18.89° C 78% 1021.6 hPa 0 mm - 118 W/m² -
1787923928 17.78° C 82% 1021.5 hPa 0 mm - 112 W/m² -
1787923627 18.33° C 79% 1021.6 hPa 0 mm - 112 W/m² -
1787923322 17.78° C 80% 1021.7 hPa 0 mm - 134 W/m² -
1787923023 16.11° C 86% 1021.7 hPa 0 mm - 80 W/m² -
1787922723 15.56° C 91% 1021.7 hPa 0 mm - 72 W/m² -
1787922422 15° C 92% 1021.6 hPa 0 mm - 66 W/m² -
1787922120 14.44° C 93% 1021.6 hPa 0 mm - 62 W/m² -
1787921823 13.89° C 93% 1021.4 hPa 0 mm - 56 W/m² -
1787921514 13.89° C 93% 1021.5 hPa 0 mm - 44 W/m² -
1787921208 13.89° C 94% 1021.1 hPa 0 mm - 39 W/m² -
1787920904 13.89° C 94% 1021.3 hPa 0 mm - 42 W/m² -

* Rain latest hour (hover to see other rain measurements)
** Current wind speed in m/s (hover to see current wind gust speed)